リニア彗星

218P/LINEAR (2009)

English version
Home page
Updated on March 17, 2010

---------------------------------------------------------------------

・ プロフィール

符号 218P/2009 F7
検出日 2009年3月31日、4月15日
検出光度 19.4等、19.5等
検出者 LINEAR, G. Sostero, E. Prosperi, E. Guido, P. Camilleri (Grove Creek Observatory, Trunkey, New South Wales)

・ 写真集

・ 軌道要素

                    Epoch = 2009 June 18.0 TT
     T = 2009 June 22.28618 TT        Peri. =  10.60506
     e = 0.4902703                    Node  = 226.74365 2000.0
     q = 1.7014372 AU                 Incl. =  18.15146
       a =  3.3379202 AU   n = 0.16161815   P =   6.10 years

・ 光度変化

        m1 = 13.5 + 5 logΔ + 20.0 log r

---------------------------------------------------------------------

軌道要素は、CBET 1767に掲載されたものです。
光度グラフはComet for Windowsで作成したものです。

---------------------------------------------------------------------

Copyright(C) Seiichi Yoshida (comet@aerith.net). All rights reserved.